Theta_e
322 321 321 321 320 318 317 316 314 313 311 311 310 310 309 308 308 308 310 319 320 319 318 317 316 315 314 313 312 313 314 314 315 316 316 317 318 319 320 320 322 323 328
321 322 321 320 316 315 313 313 310 309 307 308 308 308 307 307 305 305 307 310 318 319 316 315 313 311 311 311 310 311 311 312 312 314 314 315 314 314 315 316 318 320 322
322 319 318 315 313 313 311 309 309 308 307 309 307 307 306 304 303 302 304 303 312 317 316 312 309 310 309 309 309 309 310 310 311 312 312 312 312 312 312 312 313 315 318
320 318 315 312 311 311 309 308 308 307 306 305 303 302 302 301 302 301 301 301 307 309 314 313 310 309 308 308 308 309 309 310 310 310 311 311 310 309 309 310 311 312 313
318 314 312 310 309 309 309 308 306 306 304 303 300 298 298 299 298 302 301 301 302 304 307 312 312 311 307 307 307 308 308 308 308 310 309 308 307 307 307 308 309 310 311
312 312 310 308 309 307 306 305 303 303 303 299 302 299 298 298 297 296 296 299 298 298 301 301 299 301 307 304 304 304 306 307 307 307 307 306 305 305 305 306 307 308 309
310 308 308 308 306 305 303 302 301 299 298 299 296 294 295 296 295 294 295 295 295 297 297 297 298 298 298 302 301 301 303 303 302 303 303 302 302 303 303 303 305 307 308
309 309 307 305 304 302 301 300 299 297 298 296 293 291 289 291 293 295 293 293 291 294 295 297 296 296 294 293 294 298 299 299 300 301 300 300 300 301 302 302 304 305 307
309 307 306 304 302 301 299 299 298 297 294 294 295 292 287 285 288 291 291 291 289 289 290 291 293 293 292 291 293 294 299 299 298 299 299 299 300 300 301 301 302 303 305
304 301 301 299 298 299 299 299 300 297 295 292 293 296 291 290 284 283 287 288 288 289 288 289 290 291 291 291 294 298 300 298 295 296 297 298 299 299 299 300 301 302 304
300 300 299 297 296 297 296 297 297 297 295 293 292 291 289 288 287 284 281 283 286 287 288 288 289 289 291 290 289 292 299 296 295 295 296 297 298 298 299 299 300 301 302
297 299 298 297 297 296 296 297 297 295 294 294 293 293 290 287 285 284 282 282 283 285 287 288 287 288 289 288 293 297 298 297 295 294 295 296 297 297 298 298 299 300 301
294 294 295 295 295 296 297 297 295 295 294 293 292 291 291 290 289 288 285 283 282 284 285 286 287 287 290 288 288 294 294 294 294 293 294 294 295 295 296 296 298 298 300
295 294 295 294 295 295 295 295 295 295 294 293 292 291 291 290 291 289 287 283 280 281 282 283 286 287 287 287 289 293 287 292 293 293 292 292 293 293 294 295 296 297 297
296 295 295 294 294 294 294 293 293 295 294 293 294 295 292 293 293 293 291 287 284 277 280 282 282 286 285 285 287 286 285 290 292 292 291 292 292 293 293 294 295 295 296
295 294 293 293 293 293 293 293 292 292 291 291 293 292 292 292 293 292 289 286 284 282 277 281 281 282 283 286 287 286 285 290 289 291 291 292 293 292 292 293 294 295 295
294 294 293 293 293 293 293 292 291 291 292 291 291 291 290 291 290 289 287 284 282 281 277 279 281 282 281 281 283 284 286 285 285 289 291 291 291 292 292 292 293 294 294
294 293 293 294 294 293 292 292 291 290 289 289 289 288 288 289 285 284 282 280 280 279 277 276 278 279 279 280 281 281 284 286 285 288 290 290 291 291 292 291 292 293 293
293 293 293 293 293 293 292 292 292 290 289 289 288 287 286 285 282 280 279 278 278 280 277 276 277 278 278 279 280 281 282 282 285 287 287 289 290 290 291 291 291 292 292
293 292 292 293 293 293 293 293 291 289 289 289 289 287 286 283 280 279 279 277 278 277 277 276 276 277 278 279 279 277 278 280 280 284 285 287 288 289 289 290 290 291 293
294 294 294 293 293 292 291 289 288 287 286 285 285 285 284 284 286 282 279 277 277 276 276 276 275 276 277 277 277 279 277 278 278 280 280 281 283 284 285 288 288 290 291
293 293 292 292 291 291 288 288 286 284 285 284 282 281 282 284 284 285 284 283 281 277 275 274 276 275 276 277 279 276 276 275 273 278 278 278 281 280 283 287 288 289 291
292 292 292 291 290 288 288 287 285 283 283 282 281 280 281 283 281 279 280 280 280 281 281 277 275 274 274 276 276 276 275 275 275 277 277 276 278 278 283 286 288 289 290
291 290 290 291 290 288 288 287 284 281 282 282 281 281 280 278 279 279 277 276 277 277 278 278 275 275 276 277 277 278 277 277 278 279 278 274 278 278 280 283 286 288 290
289 290 291 290 288 286 287 286 283 280 281 281 282 281 281 278 281 281 277 276 275 276 279 281 280 281 282 282 282 281 279 278 274 276 278 277 277 276 278 280 281 287 289
290 290 288 288 288 285 286 286 283 279 280 279 280 280 282 279 280 280 276 274 273 275 276 276 276 278 279 280 283 280 279 277 277 276 278 277 277 277 275 277 280 279 280
Wind_Speed
4 4 4 4 4 4 4 4 5 5 6 6 6 6 5 5 6 3 1 5 5 7 8 8 8 9 10 12 13 15 17 18 18 19 19 19 19 21 20 19 19 20 19
4 3 4 4 4 3 4 4 4 4 4 4 5 5 6 6 5 5 1 4 4 7 9 8 9 7 8 9 10 12 15 16 17 18 19 18 20 21 22 22 21 19 20
5 3 4 4 3 3 4 4 5 5 5 5 5 5 5 4 5 6 5 3 4 7 9 8 6 7 7 7 9 10 13 13 12 16 17 17 19 21 22 24 23 22 20
4 3 4 4 3 4 3 4 4 4 4 4 4 4 3 4 6 6 6 5 2 4 6 8 6 8 8 8 9 11 12 12 15 16 14 19 22 23 22 23 24 25 22
3 5 5 3 5 4 4 3 3 3 2 3 3 3 4 4 5 6 8 9 8 3 2 7 7 11 11 11 12 12 12 14 16 15 15 16 19 22 23 24 24 24 25
6 5 4 4 5 4 4 3 4 3 1 2 3 4 4 4 4 5 5 6 6 7 5 5 4 4 10 10 9 9 11 15 11 12 16 18 19 20 23 25 25 25 25
7 6 4 5 4 4 3 3 1 2 3 3 2 4 4 3 6 4 4 5 6 6 4 2 2 3 3 9 7 7 11 8 9 11 14 17 20 21 22 24 26 26 25
7 5 5 4 4 3 5 3 2 2 1 3 1 1 4 5 5 5 3 4 6 4 6 7 5 4 3 2 1 6 8 4 10 15 16 15 17 22 24 24 25 26 26
5 4 4 3 2 2 1 2 2 2 1 2 4 2 3 1 2 2 4 3 5 4 5 5 6 5 2 2 4 5 2 6 7 9 13 15 18 20 24 25 25 26 27
6 7 7 6 5 3 4 3 0 2 3 1 2 2 1 4 1 4 3 3 4 6 6 5 5 5 6 5 9 10 6 5 4 9 14 19 21 21 22 25 27 26 27
6 6 6 6 5 4 4 5 6 4 1 2 3 1 1 2 1 2 3 3 2 3 3 3 4 4 5 4 4 5 1 4 7 13 17 19 22 24 25 25 28 25 27
4 5 6 5 4 4 4 4 2 4 3 3 0 1 2 3 2 2 2 3 2 3 2 4 4 4 4 4 7 13 7 8 10 15 18 21 22 24 25 25 26 26 26
2 3 4 4 3 3 5 3 0 0 1 0 1 2 1 2 1 1 1 3 0 3 2 3 3 4 5 4 5 7 10 10 13 16 18 20 22 24 25 26 26 26 27
3 4 4 3 3 5 5 3 2 2 2 2 4 3 2 2 1 1 1 1 3 2 2 5 3 5 5 4 5 13 5 11 14 17 20 21 24 25 25 24 25 24 26
3 4 3 2 4 4 4 4 3 4 3 3 4 4 4 2 2 4 3 2 3 2 6 4 3 4 4 3 7 5 6 13 19 19 20 22 24 24 25 25 25 23 22
3 2 2 4 4 5 6 5 3 1 1 1 3 4 3 2 1 3 3 3 1 2 3 1 2 3 4 6 9 8 8 19 17 19 20 21 20 23 22 23 26 23 20
4 2 2 2 4 5 3 1 3 4 4 3 4 3 4 4 3 4 2 2 3 2 3 3 3 3 5 6 7 6 8 8 8 16 19 22 21 18 16 19 17 15 18
3 3 2 2 5 5 4 4 1 2 3 3 3 3 2 0 1 2 3 3 2 2 1 7 5 5 4 6 6 7 8 8 9 15 18 22 17 15 14 16 20 19 19
4 3 2 2 5 6 6 4 2 2 1 2 3 3 1 2 1 1 1 1 1 3 2 2 7 5 4 5 8 7 7 7 7 18 19 19 17 16 14 18 20 18 18
3 3 4 5 5 5 2 3 4 4 4 2 1 2 3 3 4 3 1 0 1 2 3 4 6 7 6 8 6 5 6 4 7 9 14 15 14 16 16 17 19 18 18
5 6 6 4 3 5 3 4 3 3 4 4 4 4 2 4 4 4 2 1 1 2 3 5 7 7 8 8 7 4 6 7 9 6 7 5 7 8 7 7 17 15 15
4 5 5 5 5 4 10 8 5 2 1 2 3 3 3 6 4 7 9 7 4 3 4 3 7 8 9 7 4 4 7 8 9 3 4 11 5 8 7 4 12 19 14
5 4 5 5 3 5 11 10 8 3 1 2 1 1 3 4 5 3 3 6 8 12 12 6 8 4 7 6 5 8 9 7 9 10 7 10 5 7 7 8 14 18 15
5 5 5 5 4 6 13 11 8 3 1 3 2 1 2 4 3 3 3 4 4 5 7 6 4 7 7 8 7 8 10 10 9 9 4 7 6 7 5 9 17 18 12
4 5 5 4 4 3 8 9 6 3 2 3 3 2 2 4 4 3 2 4 5 6 8 13 17 17 19 19 15 7 7 6 7 9 3 4 4 4 3 6 6 11 12
6 4 2 3 6 7 12 13 9 3 4 2 2 2 5 5 2 3 2 4 5 7 7 8 8 11 12 10 14 5 5 8 9 7 3 3 3 2 4 3 4 4 5
Wind_Direction
74 64 66 55 55 70 57 43 39 36 41 31 30 22 16 0 7 31 227 197 167 130 117 102 83 69 57 48 35 23 12 8 7 6 4 2 1 358 357 357 356 350 344
64 60 69 60 63 61 55 60 53 41 26 35 17 7 353 8 12 8 122 239 208 138 126 117 103 84 72 62 49 34 15 3 1 360 2 7 1 355 350 349 349 346 342
89 97 86 87 66 39 71 53 42 42 32 13 2 345 2 4 4 349 360 18 183 138 135 133 100 78 85 59 49 30 8 357 359 353 350 355 355 352 347 342 339 338 337
118 99 104 79 51 40 54 60 46 25 20 16 345 343 350 358 7 11 356 337 208 176 158 148 92 98 79 42 29 10 360 11 355 341 4 357 347 345 342 338 333 330 329
122 129 120 86 55 51 63 45 24 55 2 352 321 337 321 353 5 17 13 20 30 77 204 226 33 80 50 37 21 12 358 345 340 357 360 349 340 339 337 335 331 325 322
89 80 70 64 46 55 40 26 29 356 40 301 338 354 355 339 21 33 6 15 21 10 36 63 37 52 60 53 34 2 348 331 349 339 337 333 338 337 332 329 327 324 318
70 86 82 74 61 60 39 18 33 9 316 358 43 347 316 353 357 45 10 13 7 1 43 56 5 52 58 67 45 352 333 352 339 331 328 329 326 328 328 324 321 319 315
90 87 77 73 63 42 11 7 20 326 319 24 62 335 353 334 17 348 18 15 5 354 4 2 5 46 83 106 60 339 326 288 306 308 308 312 319 321 321 321 315 313 310
110 109 96 74 34 63 331 311 311 67 144 316 60 121 358 304 318 343 312 337 5 16 2 357 353 1 32 296 314 324 237 230 349 336 321 312 312 315 317 315 310 310 306
90 87 93 76 58 31 2 304 230 216 147 171 358 50 129 179 271 324 337 341 1 360 348 350 360 345 337 355 359 13 6 79 20 322 312 311 312 311 311 310 305 305 305
98 95 87 67 43 23 348 338 313 300 134 112 123 11 325 291 243 191 276 299 342 339 335 355 330 347 352 5 345 323 237 186 311 320 315 313 310 309 307 303 295 297 295
83 69 67 61 40 358 341 331 4 87 100 111 142 265 209 207 249 230 262 271 242 277 306 324 314 315 312 323 318 316 318 343 337 326 315 313 312 309 307 301 294 292 292
82 72 67 49 19 330 334 340 48 22 142 113 263 243 225 265 200 225 199 274 266 292 294 266 294 299 292 288 270 311 342 336 329 323 316 309 305 302 300 298 294 290 290
124 81 66 44 3 354 358 326 289 223 181 240 258 277 281 271 240 180 271 154 322 295 266 263 260 267 274 293 344 341 329 331 318 313 310 305 301 299 297 295 293 285 281
99 78 54 7 6 334 324 313 280 249 279 297 275 254 214 196 35 320 274 234 181 285 293 284 287 284 345 347 333 327 318 310 307 306 300 300 298 298 297 299 293 287 278
76 62 19 22 350 313 300 309 349 355 50 268 250 253 221 130 113 302 304 262 248 218 284 319 303 314 342 337 325 320 295 302 300 295 297 296 298 304 303 302 293 272 267
139 165 49 0 306 296 319 16 13 346 329 318 328 144 170 159 194 233 239 26 43 21 296 297 304 320 318 309 306 292 296 297 289 304 310 305 301 299 309 301 299 277 271
170 163 125 327 303 290 269 227 147 76 40 17 48 52 52 175 140 62 87 62 57 312 355 321 306 317 294 295 292 302 303 304 310 303 310 312 313 314 296 300 295 278 279
173 161 176 260 279 284 280 247 174 187 351 36 114 108 320 329 31 130 130 64 33 4 330 298 304 301 284 292 302 300 295 305 316 318 311 306 307 323 317 316 303 278 284
154 204 235 253 262 285 28 63 86 64 31 38 92 18 350 121 189 203 146 290 53 335 298 288 297 298 299 300 292 298 311 309 306 311 311 306 308 313 311 316 327 299 284
210 227 238 232 269 138 148 129 76 65 56 17 355 10 77 229 206 172 80 327 327 275 277 284 291 294 297 302 302 307 300 302 298 295 301 298 311 301 299 323 321 301 306
294 265 232 239 187 164 155 137 132 129 49 24 348 10 348 58 79 66 56 39 341 292 270 255 283 283 293 292 286 278 297 304 309 249 322 298 290 294 298 287 297 306 271
293 273 271 243 215 167 168 152 150 156 260 315 232 44 341 113 109 112 32 356 332 321 314 304 296 307 307 295 282 296 291 280 279 285 294 294 287 284 292 295 293 279 247
301 288 281 267 205 190 177 161 156 166 284 294 238 254 249 165 154 116 29 336 300 298 296 295 308 289 273 282 263 273 282 280 277 281 265 278 288 282 279 289 279 277 272
305 298 272 298 148 168 170 162 162 173 190 273 292 320 332 135 159 42 15 312 296 289 301 311 315 312 311 308 306 304 302 298 288 289 258 253 273 272 270 284 280 279 289
282 300 218 190 178 177 186 184 183 170 195 230 267 57 110 150 149 332 274 263 284 287 291 302 304 307 303 297 313 310 311 310 301 289 267 197 290 272 315 288 320 332 291